Location: York
(31.8935°S, 116.7682°E)
Time: 09:44:07
(UTC+08:00)

Courier 1B Rocket - All Passes

Search period start: 03 October 2022 00:00
Search period end: 13 October 2022 00:00
Orbit: 920 x 1202 km, 28.2° (Epoch: 02 October)

Date Brightness Start Highest point End Pass type
(mag) Time Alt. Az. Time Alt. Az. Time Alt. Az.
03 Oct - 05:03:35 10° NNW 05:08:49 22° NNE 05:14:19 10° ENE visible
03 Oct - 06:54:52 10° WNW 07:01:51 50° NNE 07:09:16 10° E daylight
03 Oct - 08:47:54 10° W 08:55:26 68° N 09:03:15 10° E daylight
03 Oct - 10:41:32 10° W 10:49:08 57° NNW 10:56:47 10° ENE daylight
03 Oct - 12:35:54 10° W 12:42:30 30° NNW 12:48:58 10° NNE daylight
04 Oct - 04:04:17 10° N 04:07:56 15° NNE 04:11:40 10° ENE visible
04 Oct - 05:54:13 10° NW 06:00:44 40° NNE 06:07:41 10° E daylight
04 Oct - 07:46:49 10° WNW 07:54:07 65° N 08:01:51 10° E daylight
04 Oct - 09:40:16 10° W 09:47:50 64° N 09:55:37 10° ENE daylight
04 Oct - 11:34:13 10° W 11:41:21 39° NNW 11:48:27 10° NE daylight
04 Oct - 13:30:21 10° WNW 13:34:24 15° NNW 13:38:24 10° N daylight
05 Oct - 04:53:51 10° NNW 04:59:44 30° NNE 05:05:57 10° E visible
05 Oct - 06:45:52 10° WNW 06:52:54 58° NNE 07:00:24 10° E daylight
05 Oct - 08:39:05 10° W 08:46:31 67° N 08:54:18 10° ENE daylight
05 Oct - 10:32:47 10° W 10:40:08 48° NNW 10:47:36 10° NE daylight
05 Oct - 12:27:41 10° WNW 12:33:21 22° NNW 12:38:59 10° NNE daylight
06 Oct - 03:53:54 10° NNW 03:58:48 21° NNE 04:03:58 10° ENE visible
06 Oct - 05:45:05 10° WNW 05:51:45 49° NNE 05:58:54 10° E daylight
06 Oct - 07:38:00 10° W 07:45:14 68° N 07:52:55 10° E daylight
06 Oct - 09:31:29 10° W 09:38:53 56° NNW 09:46:31 10° ENE daylight
06 Oct - 11:25:43 10° W 11:32:15 29° NNW 11:38:48 10° NNE daylight
07 Oct - 02:54:41 10° N 02:57:57 14° NNE 03:01:19 10° ENE visible
07 Oct - 04:44:29 10° NW 04:50:41 39° NNE 04:57:20 10° E visible
07 Oct - 06:37:00 10° WNW 06:43:59 64° N 06:51:30 10° E daylight
07 Oct - 08:30:18 10° W 08:37:36 63° N 08:45:18 10° ENE daylight
07 Oct - 10:24:08 10° W 10:31:05 38° NNW 10:38:11 10° NE daylight
07 Oct - 12:20:10 10° WNW 12:24:11 15° NNW 12:28:12 10° N daylight
08 Oct - 03:44:10 10° NNW 03:49:45 29° NNE 03:55:40 10° E visible
08 Oct - 05:36:07 10° WNW 05:42:49 57° NNE 05:50:03 10° E daylight
08 Oct - 07:29:13 10° W 07:36:20 67° N 07:43:57 10° ENE daylight
08 Oct - 09:22:47 10° W 09:29:53 47° NNW 09:37:17 10° NE daylight
08 Oct - 11:17:35 10° WNW 11:23:06 21° NNW 11:28:42 10° NNE daylight
09 Oct - 02:44:15 10° NNW 02:48:53 21° NNE 02:53:43 10° ENE visible
09 Oct - 04:35:23 10° WNW 04:41:44 48° NNE 04:48:35 10° E visible
09 Oct - 06:28:13 10° W 06:35:07 67° N 06:42:33 10° E daylight
09 Oct - 08:21:35 10° W 08:28:40 55° NNW 08:36:10 10° ENE daylight
09 Oct - 10:15:42 10° W 10:22:00 29° NNW 10:28:28 10° NNE daylight
10 Oct - 01:45:04 10° N 01:48:04 14° NNE 01:51:08 10° ENE visible
10 Oct - 03:34:50 10° NW 03:40:45 38° NNE 03:47:04 10° E visible
10 Oct - 05:27:18 10° WNW 05:33:57 64° N 05:41:09 10° E daylight
10 Oct - 07:20:30 10° W 07:27:27 61° N 07:34:54 10° ENE daylight
10 Oct - 09:14:12 10° W 09:20:52 37° NNW 09:27:49 10° NE daylight
10 Oct - 11:10:13 10° WNW 11:13:58 14° NNW 11:17:47 10° N daylight
11 Oct - 02:34:31 10° NNW 02:39:52 28° NNE 02:45:28 10° E visible
11 Oct - 04:26:28 10° WNW 04:32:52 57° NNE 04:39:45 10° E visible
11 Oct - 06:19:29 10° W 06:26:16 65° N 06:33:35 10° ENE daylight
11 Oct - 08:12:56 10° W 08:19:42 45° NNW 08:26:53 10° NE daylight
11 Oct - 10:07:39 10° WNW 10:12:54 20° NNW 10:18:17 10° NNE daylight
12 Oct - 01:34:34 10° NNW 01:39:02 20° NNE 01:43:37 10° ENE visible
12 Oct - 03:25:45 10° WNW 03:31:51 47° NNE 03:38:21 10° E visible
12 Oct - 05:18:32 10° W 05:25:07 66° N 05:32:13 10° E daylight
12 Oct - 07:11:49 10° W 07:18:33 53° NNW 07:25:47 10° ENE daylight
12 Oct - 09:05:51 10° W 09:11:49 27° NNW 09:18:02 10° NNE daylight
